sat.trackr.live / text

‹ back to catalog

STARLINK-35657

NORAD 66399 · 2025-257V

PAYLOAD ACTIVE UNKNOWN

§ Identity

Operator
Country
US
Launch date
2025-11-09
Launch site
AFETR
Launch vehicle
Mass (kg)
RCS (m²)

Purposes: comms

External: N2YO · Heavens-Above · Gunter

§ Orbital elements

Epoch: 2026-09-20T14:23:50.757792Z

Period
93.85 min
Inclination
53.1603°
Eccentricity
0.0001055
Mean motion
15.34402526 rev/d
Perigee alt
462.0 km
Apogee alt
463.4 km
Semi-major
6,840.8 km
B*
5.2580e-4
RAAN
27.5348°
Arg perigee
85.2322°
Mean anomaly
274.8801°
Rev number
4,962

§ Raw data

STARLINK-356571 66399U 25257V   26263.59989303  .00017431  00000+0  52580-3 0  99972 66399  53.1603  27.5348 0001055  85.2322 274.8801 15.34402526 49628

JSON: /api/v1/satellites/66399 · /tle

For live sub-satellite position, see the globe view (requires WebGL).

§ Visibility from observer

Set your observer location to see the next 7 days of passes ≥ 10°. The values pass through the URL so the page stays shareable.

No JS? Fill the form by hand. The geolocation button needs JavaScript.